Regional Weather Roundup
Issued by NWS

Home | Current Version | Previous Version | Graphics & Text | Print | Product List | Glossary On
Versions: 1 2 3 4 5 6 7 8 9 10 11 12 13 14 15 16 17 18 19 20 21 22 23 24 25 26 27 28 29 30 31 32 33 34 35 36 37 38 39 40 41 42 43 44 45 46 47 48 49 50
000
ASUS43 KLMK 240402
RWRKY
KENTUCKY REGIONAL WEATHER ROUNDUP
NATIONAL WEATHER SERVICE LOUISVILLE KY
1100 PM EST SUN NOV 23 2014

NOTE "FAIR" INDICATES FEW OR NO CLOUDS BELOW 12,000 FEET
WITH NO SIGNIFICANT WEATHER AND/OR OBSTRUCTIONS TO VISIBILITY.

KYZ001>023-026-027-061>063-070>075-240500-
WESTERN AND SOUTH CENTRAL KENTUCKY

CITY           SKY/WX    TMP DP  RH WIND       PRES   REMARKS
PADUCAH        CLOUDY    59  56  89 SW12G21   29.36R
HENDERSON      CLOUDY    57  54  88 SW18G25   29.32R
OWENSBORO      CLOUDY    60  58  93 SW15G23   29.33R
HOPKINSVILLE   DRIZZLE   61  61 100 SW22G31   29.43R
BOWLING GREEN  LGT RAIN  63  57  81 SW21G28   29.41R
GLASGOW        NOT AVBL
$$

KYZ024-025-028>034-038-045-046-053-240500-
NORTH CENTRAL KENTUCKY

CITY           SKY/WX    TMP DP  RH WIND       PRES   REMARKS
LOUISVILLE/SDF LGT RAIN  60  56  86 S17G28    29.29F
LOUISVILLE/LOU LGT RAIN  59  56  89 S14G24    29.29F
FORT KNOX      LGT RAIN  57  55  94 S13       29.30S
$$

KYZ035>037-039>044-047>052-055>060-089>105-240500-
NORTHEAST KENTUCKY

CITY           SKY/WX    TMP DP  RH WIND       PRES   REMARKS
LEXINGTON      LGT RAIN  57  55  93 S18G28    29.35F FOG
COVINGTON      LGT RAIN  57  52  83 S23G29    29.29F
FRANKFORT      LGT RAIN  58  54  86 S12G23    29.32F
$$

KYZ054-064>069-076>088-106>120-240500-
SOUTHEAST KENTUCKY

CITY           SKY/WX    TMP DP  RH WIND       PRES   REMARKS
JACKSON        CLOUDY    60  51  72 VRB6G20   29.45F
LONDON         LGT RAIN  61  53  75 S18G25    29.46S
SOMERSET       NOT AVBL
MIDDLESBORO    DRIZZLE   58  54  88 S12G17    29.55S
MONTICELLO     CLOUDY    60  57  89 S24       29.48R FOG
$$



USA.gov is the U.S. government's official web portal to all federal, state and local government web resources and services.